Other Public Products
Issued by NWS Grand Forks, ND

Home | Current Version | Previous Version | Text Only | Print | Product List | Glossary Off
Versions: 1 2 3 4 5 6 7 8 9 10 11 12 13 14 15 16 17 18 19 20 21 22 23 24 25 26 27 28 29 30 31 32 33 34 35 36 37 38 39 40 41 42 43 44 45 46 47 48 49 50

000
FPUS83 KFGF 221831
OPUFGF
PRAIRIE TO PINES WEATHER ROUNDUP
NATIONAL WEATHER SERVICE EASTERN NORTH DAKOTA/GRAND FORKS ND
100 PM CDT SAT APR 22 2017

 **SATELLITE DATA USED TO AUGMENT SKY COVER AT AUTOMATED STATIONS**
 *****  WEATHER ACROSS EASTERN NORTH DAKOTA  *****

CITY           SKY/WX    TMP DP  RH WIND       PRES   REMARKS
GRAND FORKS    PTSUNNY   53  43  68 N16       30.19F
6HR MIN TEMP:  45; 6HR MAX TEMP:  57;

GRAND FORKS AF CLOUDY    50  41  71 N18       30.20S
GRAND CITY NWS NOT AVBL
BUXTON           N/A     51  47  84 N15         N/A
DEVILS LAKE    PTSUNNY   48  39  71 N18       30.20S
6HR MIN TEMP:  42; 6HR MAX TEMP:  54;

FARGO          FAIR      65  36  34 W17       30.16F
6HR MIN TEMP:  39; 6HR MAX TEMP:  68;

WAHPETON ARPT  MOCLDY    63  36  36 W14G20    30.19F
$$

 *****  WEATHER ACROSS CENTRAL AND WESTERN NORTH DAKOTA  *****

CITY           SKY/WX    TMP DP  RH WIND       PRES   REMARKS
JAMESTOWN      FAIR      65  36  34 W16G24    30.16F
6HR MIN TEMP:  41; 6HR MAX TEMP:  65;

BISMARCK       FAIR      67  37  33 W14G21    30.16F
6HR MIN TEMP:  33; 6HR MAX TEMP:  68;

MINOT          PTSUNNY   54  38  54 N15       30.20R
6HR MIN TEMP:  42; 6HR MAX TEMP:  54;

MINOT AFB      PTSUNNY   49  38  67 NE15      30.20R
6HR MIN TEMP:  40; 6HR MAX TEMP:  51; 6HR PCP: TRACE;

GARRISON         N/A     54  41  61 N10G18    30.17R
6HR MIN TEMP:  35; 6HR MAX TEMP:  58;

WILLISTON      CLOUDY    49  41  74 SE8       30.21F
6HR MIN TEMP:  43; 6HR MAX TEMP:  50;

DICKINSON      CLOUDY    59  40  49 W15       30.15F
6HR MIN TEMP:  33; 6HR MAX TEMP:  61;

HETTINGER      FAIR      59  42  53 W10       30.19F
6HR MIN TEMP:  38; 6HR MAX TEMP:  61;

$$

 *****  OTHER OBSERVATIONS NORTHEAST NORTH DAKOTA  *****

CITY           SKY/WX    TMP DP  RH WIND       PRES   REMARKS
WALHALLA       NOT AVBL
LANGDON        CLOUDY    39  34  81 NE17      30.23R
CAVALIER       CLOUDY    36  32  87 N13       30.24F
GRAFTON        CLOUDY    41  37  87 N21       30.25S
CANDO          NOT AVBL
FORT TOTTEN      N/A     50  41  70 NE7       29.95S
ROLLA          CLOUDY    32  32 100 NE16      30.24S WCI  21
RUGBY          NOT AVBL
 ***** THE ABOVE OBSERVATIONS ARE NON NWS ARE NOT QUALITY
        CONTROLLED AND MAY MIS-REPORT RAIN FOR SNOW...
$$

 *****  OTHER OBSERVATIONS SOUTHEAST NORTH DAKOTA *****

CITY           SKY/WX    TMP DP  RH WIND       PRES   REMARKS
COOPERSTOWN    FAIR      64  41  42 SW21      30.15F
VALLEY CITY    FAIR      64  37  36 W13G25    30.17F
OAKES          NOT AVBL
GWINNER        PTCLDY    64  41  42 MISG      30.19F
SHEYENNE NWR     N/A     66  36  33 W14       29.95S
BUFFALO          N/A     65  31  28 SE14        N/A
WYNDMERE         N/A     66  37  34 W12         N/A
 ***** THE ABOVE OBSERVATIONS ARE NON NWS ARE NOT QUALITY
       CONTROLLED AND MAY MIS-REPORT RAIN FOR SNOW...
$$

  *****  WEATHER ACROSS NORTHERN MINNESOTA  *****

CITY           SKY/WX    TMP DP  RH WIND       PRES   REMARKS
FLAG ISLAND    LGT RAIN  39  37  93 NW21      30.16R
WARROAD        CLOUDY    41  37  87 NW10      30.18S
ROSEAU         CLOUDY    43  37  81 N10       30.19R
HALLOCK        CLOUDY    37  34  87 N16       30.24R
THF RVR FALLS  CLOUDY    49  41  74 NW16G23   30.19S
6HR MIN TEMP:  41; 6HR MAX TEMP:  58;

HALSTAD          N/A     65  37  35 NW18        N/A
FOSSTON        PTSUNNY   63  39  42 NW17G23   30.14S
BAUDETTE       CLOUDY    46  37  71 N15       30.15R
6HR MIN TEMP:  40; 6HR MAX TEMP:  60;

WASKISH        CLOUDY    57  45  62 NW16G25   30.11R
CROOKSTON      FAIR      52  43  71 N15G23    30.19S
$$
  *****  WEATHER ACROSS CENTRAL AND WEST MINNESOTA  *****

CITY           SKY/WX    TMP DP  RH WIND       PRES   REMARKS
BEMIDJI        PTSUNNY   62  36  37 W17       30.13S
PARK RAPIDS    PTSUNNY   63  35  35 W12G23    30.16F
6HR MIN TEMP:  36; 6HR MAX TEMP:  65;

WADENA         FAIR      63  39  42 W12       30.19S
DETROIT LAKES  FAIR      63  36  36 W17       30.18F
MOORHEAD       FAIR      66  37  34 W18G24    30.17F
FERGUS FALLS   FAIR      63  39  42 W13G21    30.19S
ELBOW LAKE     MOCLDY    62  38  41 NW12      30.21F
6HR MIN TEMP:  39; 6HR MAX TEMP:  63;

MORRIS MN      FAIR      64  39  39 NW6G14    30.21F
STAPLES        FAIR      64  34  32 W10G21    30.18F
WHEATON        FAIR      64  34  32 W10       30.22F
$$
  *****  WEATHER ELSEWHERE ACROSS MINNESOTA  *****

CITY           SKY/WX    TMP DP  RH WIND       PRES   REMARKS
DULUTH         FAIR      64  37  36 SW17G26   30.12F
6HR MIN TEMP:  40; 6HR MAX TEMP:  65;

INTRNTL FALLS  CLOUDY    55  37  50 N21       30.08R
6HR MIN TEMP:  34; 6HR MAX TEMP:  64;

ELY            FAIR      63  34  34 W20       30.06F
CLOQUET        FAIR      64  28  25 W15G23    30.13F
BRAINERD       FAIR      64  33  31 W13G23    30.18F
6HR MIN TEMP:  33; 6HR MAX TEMP:  65;

HIBBING        FAIR      61  36  39 W12G21    30.11F
6HR MIN TEMP:  27; 6HR MAX TEMP:  62;

ALEXANDRIA     FAIR      64  37  36 W14G22    30.22F
6HR MIN TEMP:  37; 6HR MAX TEMP:  64;

SAINT CLOUD    FAIR      64  37  36 W13       30.20F
6HR MIN TEMP:  34; 6HR MAX TEMP:  65;

MINNEAPOLIS    FAIR      66  34  30 NW12G17   30.21F
6HR MIN TEMP:  43; 6HR MAX TEMP:  66;

$$

  *****  WEATHER ACROSS SOUTH DAKOTA  *****

CITY           SKY/WX    TMP DP  RH WIND       PRES   REMARKS
SIOUX FALLS    FAIR      63  36  36 VRB3      30.26F
6HR MIN TEMP:  33; 6HR MAX TEMP:  63;

BROOKINGS      FAIR      60  37  42 W8        30.25
WATERTOWN      FAIR      61  37  41 W10G17    30.24F
6HR MIN TEMP:  31; 6HR MAX TEMP:  61;

HURON          FAIR      63  35  35 MISG      30.24F
6HR MIN TEMP:  35; 6HR MAX TEMP:  64;

SISSETON         N/A     65  38  36 W12G20    30.20F
ABERDEEN       FAIR      64  35  34 SW10      30.21F
6HR MIN TEMP:  30; 6HR MAX TEMP:  65;

MITCHELL       FAIR      63  36  36 CALM      30.26F
PIERRE         FAIR      62  35  36 SW10G20   30.24F
6HR MIN TEMP:  35; 6HR MAX TEMP:  62;

MOBRIDGE       FAIR      65  34  31 SW15      30.18F
RAPID CITY     FAIR      59  38  45 S3        30.23F
6HR MIN TEMP:  33; 6HR MAX TEMP:  60;

$$

  *****  SOME WEATHER IN NEARBY STATES *****

CITY           SKY/WX    TMP DP  RH WIND       PRES   REMARKS
GLASGOW MT     CLOUDY    45  40  82 E5        30.20F
6HR MIN TEMP:  41; 6HR MAX TEMP:  45; 6HR PCP: TRACE;

GREAT FALLS MT FAIR      52  35  52 S13G21    30.12F
6HR MIN TEMP:  35; 6HR MAX TEMP:  52;

CHEYENNE WY    FAIR      43  34  70 SW8       30.30S
6HR MIN TEMP:  33; 6HR MAX TEMP:  43; 6HR PCP: TRACE;

SCOTTSBLUFF NE PTSUNNY   58  34  40 SE7       30.27F
6HR MIN TEMP:  33; 6HR MAX TEMP:  58;

OMAHA NE       PTSUNNY   64  31  28 NE15      30.24F
6HR MIN TEMP:  39; 6HR MAX TEMP:  64;

DES MOINES IA  PTSUNNY   63  32  31 NE13G21   30.23F
6HR MIN TEMP:  46; 6HR MAX TEMP:  64;

DAVENPORT IA   FAIR      59  33  37 NE13G21   30.21F
6HR MIN TEMP:  40; 6HR MAX TEMP:  59;

CHICAGO IL     PTSUNNY   56  26  31 NE13      30.20F
6HR MIN TEMP:  43; 6HR MAX TEMP:  56;

EAU CLAIRE WI  FAIR      62  27  26 CALM      30.21F
6HR MIN TEMP:  31; 6HR MAX TEMP:  63;

LA CROSSE WI   FAIR      64  21  19 MISG      30.23F
6HR MIN TEMP:  38; 6HR MAX TEMP:  64;

$$

  *****  SOME NATIONAL WEATHER *****

CITY           SKY/WX    TMP DP  RH WIND       PRES   REMARKS
LA GUARDIA NY  LGT RAIN  53  48  83 NE7       29.92S



USA.gov is the U.S. government's official web portal to all federal, state and local government web resources and services.